AAL2966 KDFW-KMSY

Flight info

Callsign AAL2966
Flight time 1h 8m
Altitude 37000
Route MRSSH3 ZALEA SWEUP LSU AWDAD1
Aircraft A319/M-SDE3FGHIRWY/LB1

Departure

Time 2026-05-07 23:51
Airport Dallas Fort Worth International Airport (KDFW)

Arrival

Time 2026-05-08 01:00
Airport Louis Armstrong New Orleans International Airport (KMSY)
Time Latitude Longitude Altitude Speed Heading
2026-05-07 23:25 32.89594 -97.04564 598 ft 0 kts 91°
2026-05-07 23:40 32.89594 -97.04570 598 ft 4 kts 92°
2026-05-07 23:40 32.89593 -97.04601 598 ft 4 kts 82°
2026-05-07 23:40 32.89587 -97.04632 598 ft 4 kts 66°
2026-05-07 23:41 32.89573 -97.04659 598 ft 4 kts 39°
2026-05-07 23:41 32.89553 -97.04670 598 ft 2 kts
2026-05-07 23:41 32.89548 -97.04671 598 ft 0 kts
2026-05-07 23:44 32.89577 -97.04670 598 ft 7 kts
2026-05-07 23:45 32.89642 -97.04670 598 ft 13 kts
2026-05-07 23:45 32.89756 -97.04669 598 ft 18 kts
2026-05-07 23:45 32.89879 -97.04715 598 ft 19 kts 333°
2026-05-07 23:45 32.90010 -97.04765 598 ft 20 kts 355°
2026-05-07 23:46 32.90148 -97.04766 598 ft 20 kts
2026-05-07 23:46 32.90285 -97.04764 598 ft 21 kts
2026-05-07 23:46 32.90415 -97.04763 598 ft 18 kts 360°
2026-05-07 23:46 32.90547 -97.04763 598 ft 19 kts
2026-05-07 23:47 32.90686 -97.04761 598 ft 21 kts
2026-05-07 23:47 32.90835 -97.04761 598 ft 20 kts
2026-05-07 23:47 32.90970 -97.04758 598 ft 20 kts
2026-05-07 23:47 32.91096 -97.04708 598 ft 20 kts
2026-05-07 23:48 32.91236 -97.04706 598 ft 21 kts
2026-05-07 23:48 32.91382 -97.04705 598 ft 21 kts
2026-05-07 23:48 32.91522 -97.04705 598 ft 16 kts 359°
2026-05-07 23:48 32.91564 -97.04785 598 ft 10 kts 269°
2026-05-07 23:49 32.91566 -97.04881 598 ft 13 kts 270°
2026-05-07 23:49 32.91566 -97.04948 598 ft 0 kts 270°
2026-05-07 23:49 32.91566 -97.04955 598 ft 3 kts 270°
2026-05-07 23:50 32.91567 -97.05025 598 ft 13 kts 268°
2026-05-07 23:50 32.91498 -97.05074 598 ft 11 kts 179°
2026-05-07 23:50 32.91489 -97.05074 598 ft 0 kts 180°
2026-05-07 23:51 32.91194 -97.05073 598 ft 91 kts 180°
2026-05-07 23:51 32.90263 -97.05078 600 ft 169 kts 180°
2026-05-07 23:51 32.88987 -97.05084 1064 ft 196 kts 179°
2026-05-07 23:51 32.87582 -97.05085 1913 ft 207 kts 179°
2026-05-07 23:52 32.86066 -97.05089 2522 ft 230 kts 179°
2026-05-07 23:52 32.84379 -97.05093 3173 ft 253 kts 179°
2026-05-07 23:52 32.82578 -97.05100 4112 ft 263 kts 179°
2026-05-07 23:52 32.80725 -97.05077 5093 ft 271 kts 175°
2026-05-07 23:53 32.78847 -97.04742 6147 ft 275 kts 172°
2026-05-07 23:53 32.76946 -97.04350 7164 ft 279 kts 173°
2026-05-07 23:53 32.75023 -97.03940 8166 ft 283 kts 173°
2026-05-07 23:53 32.73103 -97.03255 9133 ft 294 kts 158°
2026-05-07 23:54 32.71403 -97.01828 10079 ft 307 kts 139°
2026-05-07 23:54 32.70154 -96.99722 10861 ft 322 kts 119°
2026-05-07 23:54 32.69460 -96.97110 11222 ft 349 kts 105°
2026-05-07 23:54 32.68941 -96.94255 11989 ft 358 kts 99°
2026-05-07 23:55 32.68848 -96.91282 12802 ft 366 kts 88°
2026-05-07 23:55 32.68925 -96.88236 13607 ft 373 kts 88°
2026-05-07 23:55 32.68987 -96.85135 14339 ft 380 kts 89°
2026-05-07 23:55 32.69036 -96.82024 15074 ft 385 kts 89°
2026-05-07 23:56 32.69080 -96.78831 15820 ft 390 kts 90°
2026-05-07 23:56 32.69122 -96.75588 16555 ft 395 kts 90°
2026-05-07 23:56 32.69163 -96.72302 17257 ft 401 kts 90°
2026-05-07 23:56 32.69207 -96.68966 17978 ft 406 kts 90°
2026-05-07 23:57 32.69254 -96.65603 18647 ft 411 kts 90°
2026-05-07 23:57 32.69302 -96.62189 19241 ft 417 kts 90°
2026-05-07 23:57 32.69351 -96.58724 19832 ft 423 kts 90°
2026-05-07 23:57 32.69400 -96.55205 20442 ft 429 kts 90°
2026-05-07 23:58 32.69447 -96.51637 21033 ft 434 kts 90°
2026-05-07 23:58 32.69495 -96.48025 21623 ft 440 kts 90°
2026-05-07 23:58 32.69545 -96.44376 22199 ft 447 kts 89°
2026-05-07 23:58 32.69595 -96.40669 22744 ft 453 kts 89°
2026-05-07 23:59 32.69643 -96.36903 23314 ft 459 kts 89°
2026-05-07 23:59 32.69660 -96.33142 23825 ft 465 kts 93°
2026-05-07 23:59 32.69416 -96.29245 24352 ft 468 kts 96°
2026-05-07 23:59 32.69158 -96.25429 24876 ft 472 kts 96°
2026-05-08 00:00 32.68897 -96.21544 25394 ft 475 kts 96°
2026-05-08 00:00 32.68633 -96.17608 25916 ft 478 kts 97°
2026-05-08 00:00 32.68372 -96.13690 26429 ft 481 kts 97°
2026-05-08 00:00 32.68107 -96.09695 26938 ft 484 kts 97°
2026-05-08 00:01 32.67842 -96.05734 27454 ft 486 kts 97°
2026-05-08 00:01 32.67572 -96.01705 27978 ft 488 kts 98°
2026-05-08 00:01 32.67300 -95.97678 28478 ft 491 kts 98°
2026-05-08 00:01 32.67024 -95.93630 28965 ft 493 kts 98°
2026-05-08 00:02 32.66743 -95.89551 29451 ft 496 kts 99°
2026-05-08 00:02 32.66460 -95.85461 29928 ft 499 kts 99°
2026-05-08 00:02 32.66175 -95.81344 30352 ft 502 kts 99°
2026-05-08 00:02 32.65891 -95.77254 30743 ft 505 kts 99°
2026-05-08 00:03 32.65601 -95.73076 31113 ft 508 kts 99°
2026-05-08 00:03 32.65307 -95.68882 31468 ft 512 kts 99°
2026-05-08 00:03 32.65010 -95.64655 31810 ft 515 kts 99°
2026-05-08 00:03 32.64711 -95.60434 32137 ft 518 kts 99°
2026-05-08 00:04 32.64403 -95.56145 32470 ft 522 kts 99°
2026-05-08 00:04 32.64091 -95.51840 32876 ft 523 kts 99°
2026-05-08 00:04 32.63780 -95.47546 33340 ft 523 kts 99°
2026-05-08 00:04 32.63470 -95.43254 33802 ft 523 kts 99°
2026-05-08 00:05 32.63159 -95.38964 34240 ft 523 kts 99°
2026-05-08 00:05 32.62847 -95.34669 34614 ft 524 kts 99°
2026-05-08 00:05 32.62530 -95.30337 34904 ft 528 kts 99°
2026-05-08 00:05 32.62212 -95.25994 35171 ft 531 kts 99°
2026-05-08 00:06 32.61891 -95.21611 35483 ft 533 kts 99°
2026-05-08 00:06 32.61568 -95.17216 35788 ft 535 kts 99°
2026-05-08 00:06 32.61240 -95.12825 36092 ft 537 kts 99°
2026-05-08 00:06 32.60905 -95.08399 36398 ft 539 kts 99°
2026-05-08 00:07 32.60568 -95.03985 36703 ft 540 kts 99°
2026-05-08 00:07 32.60228 -94.99542 36982 ft 542 kts 99°
2026-05-08 00:07 32.59557 -94.90660 37074 ft 536 kts 99°
2026-05-08 00:08 32.58882 -94.81887 37070 ft 534 kts 99°
2026-05-08 00:08 32.57411 -94.73437 37063 ft 522 kts 116°
2026-05-08 00:09 32.55111 -94.65331 37060 ft 522 kts 115°
2026-05-08 00:09 32.52817 -94.57183 37021 ft 522 kts 116°
2026-05-08 00:10 32.50513 -94.49027 37043 ft 521 kts 116°
2026-05-08 00:10 32.48211 -94.40898 37049 ft 521 kts 116°
2026-05-08 00:11 32.45888 -94.32769 37054 ft 520 kts 116°
2026-05-08 00:11 32.43565 -94.24640 37053 ft 520 kts 116°
2026-05-08 00:12 32.41255 -94.16544 37057 ft 520 kts 116°
2026-05-08 00:12 32.38927 -94.08438 37058 ft 520 kts 116°
2026-05-08 00:13 32.36591 -94.00328 37058 ft 520 kts 116°
2026-05-08 00:13 32.34266 -93.92284 37059 ft 520 kts 116°
2026-05-08 00:14 32.31916 -93.84186 37065 ft 520 kts 116°
2026-05-08 00:14 32.29963 -93.77458 37051 ft 520 kts 116°
2026-05-08 00:15 32.27213 -93.67981 37027 ft 521 kts 116°
2026-05-08 00:15 32.24848 -93.59871 37037 ft 522 kts 116°
2026-05-08 00:16 32.22484 -93.51808 37042 ft 523 kts 116°
2026-05-08 00:16 32.20097 -93.43682 37048 ft 523 kts 116°
2026-05-08 00:17 32.17699 -93.35587 37053 ft 523 kts 116°
2026-05-08 00:17 32.15281 -93.27496 37065 ft 523 kts 116°
2026-05-08 00:18 32.12866 -93.19400 37063 ft 523 kts 116°
2026-05-08 00:18 32.10857 -93.12658 37062 ft 523 kts 116°
2026-05-08 00:19 32.08020 -93.03191 37056 ft 523 kts 116°
2026-05-08 00:19 32.05587 -92.95119 37055 ft 523 kts 116°
2026-05-08 00:20 32.03147 -92.87027 37034 ft 522 kts 116°
2026-05-08 00:20 32.00733 -92.79034 37063 ft 521 kts 116°
2026-05-08 00:21 31.98548 -92.72390 37070 ft 512 kts 125°
2026-05-08 00:21 31.96116 -92.67745 37073 ft 495 kts 138°
2026-05-08 00:21 31.94670 -92.65689 37054 ft 486 kts 144°
2026-05-08 00:22 31.92277 -92.62961 37054 ft 473 kts 152°
2026-05-08 00:22 31.89721 -92.60539 37058 ft 470 kts 153°
2026-05-08 00:22 31.84628 -92.55731 37059 ft 471 kts 153°
2026-05-08 00:23 31.79526 -92.50895 37056 ft 471 kts 153°
2026-05-08 00:23 31.74419 -92.46062 37032 ft 470 kts 153°
2026-05-08 00:24 31.69309 -92.41250 37034 ft 470 kts 153°
2026-05-08 00:24 31.64205 -92.36454 37040 ft 470 kts 153°
2026-05-08 00:25 31.59127 -92.31691 37048 ft 470 kts 153°
2026-05-08 00:25 31.53978 -92.26862 37045 ft 470 kts 153°
2026-05-08 00:26 31.48873 -92.22082 37008 ft 470 kts 153°
2026-05-08 00:26 31.43797 -92.17325 37038 ft 469 kts 153°
2026-05-08 00:27 31.38719 -92.12567 37042 ft 468 kts 153°
2026-05-08 00:27 31.33622 -92.07805 37041 ft 468 kts 153°
2026-05-08 00:28 31.28510 -92.03053 36626 ft 476 kts 153°
2026-05-08 00:28 31.25896 -92.00646 35894 ft 480 kts 153°
2026-05-08 00:28 31.23282 -91.98219 35447 ft 475 kts 153°
2026-05-08 00:29 31.20725 -91.95839 34767 ft 477 kts 152°
2026-05-08 00:29 31.18100 -91.93392 34207 ft 475 kts 152°
2026-05-08 00:29 31.15535 -91.91001 33594 ft 473 kts 152°
2026-05-08 00:29 31.13004 -91.88645 33042 ft 470 kts 151°
2026-05-08 00:30 31.10480 -91.86299 32477 ft 467 kts 151°
2026-05-08 00:30 31.07944 -91.83947 31928 ft 464 kts 151°
2026-05-08 00:30 31.05415 -91.81609 31388 ft 461 kts 151°
2026-05-08 00:30 31.02915 -91.79305 30856 ft 459 kts 151°
2026-05-08 00:31 31.00404 -91.76992 30337 ft 457 kts 150°
2026-05-08 00:31 30.97922 -91.74703 29773 ft 455 kts 150°
2026-05-08 00:31 30.95450 -91.72421 29284 ft 450 kts 150°
2026-05-08 00:31 30.93010 -91.70167 28784 ft 445 kts 150°
2026-05-08 00:32 30.90604 -91.67946 28332 ft 440 kts 150°
2026-05-08 00:32 30.88230 -91.65758 27846 ft 437 kts 150°
2026-05-08 00:32 30.85834 -91.63554 27371 ft 434 kts 150°
2026-05-08 00:32 30.83492 -91.61403 26892 ft 432 kts 150°
2026-05-08 00:33 30.81137 -91.59241 26385 ft 431 kts 150°
2026-05-08 00:33 30.78791 -91.57087 25883 ft 430 kts 150°
2026-05-08 00:33 30.76451 -91.54941 25425 ft 428 kts 150°
2026-05-08 00:33 30.74110 -91.52795 24895 ft 428 kts 150°
2026-05-08 00:34 30.71800 -91.50677 24565 ft 419 kts 150°
2026-05-08 00:34 30.69524 -91.48586 23887 ft 416 kts 150°
2026-05-08 00:34 30.67266 -91.46513 23164 ft 411 kts 150°
2026-05-08 00:34 30.65018 -91.44456 22638 ft 408 kts 150°
2026-05-08 00:35 30.62820 -91.42445 22120 ft 398 kts 150°
2026-05-08 00:35 30.60671 -91.40474 21638 ft 387 kts 150°
2026-05-08 00:35 30.58567 -91.38551 21160 ft 386 kts 151°
2026-05-08 00:35 30.56458 -91.36637 20684 ft 385 kts 151°
2026-05-08 00:36 30.54338 -91.34716 20201 ft 385 kts 151°
2026-05-08 00:36 30.52223 -91.32798 19715 ft 385 kts 151°
2026-05-08 00:36 30.50124 -91.30890 19280 ft 384 kts 150°
2026-05-08 00:36 30.48042 -91.28990 18838 ft 383 kts 150°
2026-05-08 00:37 30.45965 -91.27069 18553 ft 377 kts 150°
2026-05-08 00:37 30.43928 -91.25167 18109 ft 376 kts 150°
2026-05-08 00:37 30.41900 -91.23269 17670 ft 373 kts 149°
2026-05-08 00:38 30.37887 -91.19506 16856 ft 368 kts 146°
2026-05-08 00:38 30.36239 -91.17245 16725 ft 372 kts 125°
2026-05-08 00:38 30.35309 -91.14450 16594 ft 370 kts 110°
2026-05-08 00:38 30.34644 -91.11630 16344 ft 365 kts 109°
2026-05-08 00:39 30.33987 -91.08781 16110 ft 362 kts 109°
2026-05-08 00:39 30.33343 -91.05989 15871 ft 359 kts 109°
2026-05-08 00:39 30.32707 -91.03236 15565 ft 357 kts 109°
2026-05-08 00:39 30.32063 -91.00465 15232 ft 356 kts 109°
2026-05-08 00:40 30.31409 -90.97687 14902 ft 355 kts 109°
2026-05-08 00:40 30.30759 -90.94944 14579 ft 353 kts 109°
2026-05-08 00:40 30.30110 -90.92230 14255 ft 351 kts 109°
2026-05-08 00:40 30.29450 -90.89495 13934 ft 350 kts 109°
2026-05-08 00:41 30.28792 -90.86799 13590 ft 347 kts 109°
2026-05-08 00:41 30.28127 -90.84107 13231 ft 345 kts 109°
2026-05-08 00:41 30.27466 -90.81459 12877 ft 343 kts 109°
2026-05-08 00:41 30.26801 -90.78813 12520 ft 338 kts 109°
2026-05-08 00:42 30.26152 -90.76256 12182 ft 330 kts 109°
2026-05-08 00:42 30.25516 -90.73747 11896 ft 328 kts 109°
2026-05-08 00:42 30.24873 -90.71230 11603 ft 326 kts 109°
2026-05-08 00:42 30.24223 -90.68712 11311 ft 324 kts 109°
2026-05-08 00:43 30.23568 -90.66197 11066 ft 322 kts 109°
2026-05-08 00:43 30.22922 -90.63745 11006 ft 321 kts 109°
2026-05-08 00:43 30.22268 -90.61271 11009 ft 322 kts 109°
2026-05-08 00:43 30.21614 -90.58794 11017 ft 322 kts 109°
2026-05-08 00:44 30.20960 -90.56313 11024 ft 322 kts 109°
2026-05-08 00:44 30.20309 -90.53842 11023 ft 322 kts 109°
2026-05-08 00:44 30.19655 -90.51357 11022 ft 322 kts 108°
2026-05-08 00:44 30.19004 -90.48884 11023 ft 322 kts 108°
2026-05-08 00:45 30.18349 -90.46393 11020 ft 322 kts 108°
2026-05-08 00:45 30.17700 -90.43928 11017 ft 322 kts 108°
2026-05-08 00:45 30.17047 -90.41444 11016 ft 322 kts 108°
2026-05-08 00:45 30.16397 -90.38968 11013 ft 322 kts 108°
2026-05-08 00:46 30.15747 -90.36490 11015 ft 324 kts 108°
2026-05-08 00:46 30.15086 -90.33981 11009 ft 325 kts 108°
2026-05-08 00:46 30.14430 -90.31490 11007 ft 325 kts 108°
2026-05-08 00:46 30.13770 -90.28983 11004 ft 325 kts 108°
2026-05-08 00:47 30.13121 -90.26517 10928 ft 326 kts 108°
2026-05-08 00:47 30.12464 -90.24029 10657 ft 323 kts 108°
2026-05-08 00:47 30.11793 -90.21512 10359 ft 322 kts 108°
2026-05-08 00:47 30.11139 -90.19088 10074 ft 319 kts 108°
2026-05-08 00:48 30.10479 -90.16657 9760 ft 316 kts 108°
2026-05-08 00:48 30.09811 -90.14217 9426 ft 312 kts 108°
2026-05-08 00:48 30.09166 -90.11871 9111 ft 309 kts 108°
2026-05-08 00:48 30.08514 -90.09510 8781 ft 307 kts 108°
2026-05-08 00:49 30.07860 -90.07156 8455 ft 305 kts 108°
2026-05-08 00:49 30.07219 -90.04858 8098 ft 303 kts 108°
2026-05-08 00:49 30.06573 -90.02544 7742 ft 301 kts 108°
2026-05-08 00:49 30.05921 -90.00225 7375 ft 299 kts 108°
2026-05-08 00:50 30.05285 -89.97966 7019 ft 297 kts 108°
2026-05-08 00:50 30.04653 -89.95698 6670 ft 296 kts 108°
2026-05-08 00:50 30.04028 -89.93457 6301 ft 294 kts 108°
2026-05-08 00:50 30.03398 -89.91211 5884 ft 294 kts 108°
2026-05-08 00:51 30.02766 -89.88971 5477 ft 293 kts 108°
2026-05-08 00:51 30.02134 -89.86739 5069 ft 292 kts 108°
2026-05-08 00:51 30.01495 -89.84516 4648 ft 290 kts 110°
2026-05-08 00:51 30.00511 -89.82515 4226 ft 287 kts 133°
2026-05-08 00:52 29.98897 -89.81216 3808 ft 283 kts 160°
2026-05-08 00:52 29.96974 -89.80891 3404 ft 280 kts 185°
2026-05-08 00:52 29.95135 -89.81483 3235 ft 271 kts 207°
2026-05-08 00:52 29.93663 -89.82798 3112 ft 269 kts 230°
2026-05-08 00:53 29.92759 -89.84608 2981 ft 256 kts 253°
2026-05-08 00:53 29.92519 -89.86562 2981 ft 236 kts 274°
2026-05-08 00:53 29.92661 -89.88377 3003 ft 220 kts 277°
2026-05-08 00:53 29.92800 -89.90088 3000 ft 206 kts 276°
2026-05-08 00:54 29.92929 -89.91702 3007 ft 202 kts 277°
2026-05-08 00:54 29.93065 -89.93360 3014 ft 212 kts 277°
2026-05-08 00:54 29.93204 -89.95066 3009 ft 214 kts 276°
2026-05-08 00:54 29.93340 -89.96779 3009 ft 215 kts 276°
2026-05-08 00:55 29.93474 -89.98471 3002 ft 213 kts 277°
2026-05-08 00:55 29.93610 -90.00156 3018 ft 207 kts 276°
2026-05-08 00:55 29.93738 -90.01763 2998 ft 198 kts 276°
2026-05-08 00:55 29.93864 -90.03333 3002 ft 196 kts 276°
2026-05-08 00:56 29.94025 -90.04881 3000 ft 193 kts 284°
2026-05-08 00:56 29.94386 -90.06348 2889 ft 187 kts 287°
2026-05-08 00:56 29.94735 -90.07782 2771 ft 185 kts 287°
2026-05-08 00:56 29.95080 -90.09204 2647 ft 184 kts 287°
2026-05-08 00:57 29.95422 -90.10616 2522 ft 184 kts 287°
2026-05-08 00:57 29.95764 -90.12029 2350 ft 182 kts 287°
2026-05-08 00:57 29.96102 -90.13424 2099 ft 174 kts 287°
2026-05-08 00:57 29.96405 -90.14685 2010 ft 158 kts 288°
2026-05-08 00:58 29.96691 -90.15871 1744 ft 153 kts 288°
2026-05-08 00:58 29.96968 -90.17018 1479 ft 150 kts 288°
2026-05-08 00:58 29.97249 -90.18179 1257 ft 148 kts 288°
2026-05-08 00:58 29.97522 -90.19302 1046 ft 146 kts 290°
2026-05-08 00:59 29.97778 -90.20437 848 ft 146 kts 289°
2026-05-08 00:59 29.98041 -90.21576 681 ft 145 kts 288°
2026-05-08 00:59 29.98324 -90.22673 541 ft 143 kts 288°
2026-05-08 00:59 29.98574 -90.23759 389 ft 136 kts 290°
2026-05-08 01:00 29.98828 -90.24766 201 ft 125 kts 289°
2026-05-08 01:00 29.99080 -90.25676 16 ft 106 kts 283°
2026-05-08 01:00 29.99196 -90.26232 11 ft 37 kts 284°
2026-05-08 01:00 29.99242 -90.26457 14 ft 24 kts 256°
2026-05-08 01:01 29.99181 -90.26502 14 ft 0 kts 171°
2026-05-08 01:02 29.99172 -90.26500 14 ft 5 kts 167°
2026-05-08 01:02 29.99126 -90.26456 13 ft 13 kts 115°
2026-05-08 01:02 29.99096 -90.26333 12 ft 15 kts 107°
2026-05-08 01:02 29.99073 -90.26249 14 ft 17 kts 108°
2026-05-08 01:03 29.99042 -90.26111 15 ft 16 kts 105°
2026-05-08 01:03 29.99002 -90.25952 16 ft 16 kts 106°
2026-05-08 01:03 29.98963 -90.25836 17 ft 11 kts 147°
2026-05-08 01:03 29.98916 -90.25856 16 ft 12 kts 225°
2026-05-08 01:04 29.98864 -90.25888 16 ft 2 kts 175°
2026-05-08 01:04 29.98860 -90.25888 17 ft 0 kts 181°
2026-05-08 01:04 29.98859 -90.25889 17 ft 0 kts 193°